"Pseudo-MPEC" for P211FjA

Created 2020 Jul 11 9:07:13 UT using Find_Orb

Click here for an explanation of pseudo-MPECs

 
 Astrometry: 
     P211FjA  C2020 06 13`xLJKq!\*4,6OxeKC$v(f-7f;Urt2LiNvnQP*f6uo8M4cpl_R3FjF52
     P211FjA  C2020 06 13ybyq6^b_28Sfj)q0tFY2sGPC9iPL6tLxswh5[PtHB'42e_v_+UqXF52
     P211FjA  C2020 06 13Gp7,v'HYSGi[Q=]sEr`0W\I=l@uHBQr3]on=qMqqt:-KWjxb^ftuF52
     P211FjA  C2020 06 1357A02i,bsUWgsNnjB*-G;wEr:^^4YN%8kCD/+qe88E,\EN@,u[]@F52
     P211FjA  C2020 06 13Sw$le7tDk2650Et'dk?6%^5S$A(:XHm0'9ur3tdy0y//Mjt/PThiF52
     P211FjA  C2020 06 17CAGI;wLc--\YjVCifvyPJi$BSTwAwt=y9@:6F#wSZY3J609Val,1F52
     P211FjA  C2020 06 1760SC?*p%[orVd.g_0!wK.a??H1%3!jAD/K=Y*R)V.me4#u6Br;*3F52
     P211FjA  C2020 06 17ZI\FOoGs6F(=;oDW$kuiypuj1Y#F)_l2/m+Emg;0\p'M^r'RUEP5F52
     P211FjA KC2020 06 18h0lhm,4Y;':O_V9ALsHSWuU^'1]^;L%?nrK(+@cIZ8.6RP%Ro]'%H21
     P211FjA KC2020 06 18ucj3G+_M1XA]]#i#f88Y!(e+Ej]nMes#(=6OIOV4bQqET:#t-oSbH21
     P211FjA KC2020 06 18wmB/Pk6omw\)_3\sugDtA9QFFo.Dh!@Q+1AU*5Rf3KQID7B!X[RNH21
     P211FjA KC2020 06 18[yxiw@D=q*)8_3MkSFX$Q(X?DYQZe;X_;x]3ogpa]5r65P:f2pDQJ04
     P211FjA KC2020 06 18nW]Nw=j;uO1MfxvTn]Z+L,Aa75(I+Uy^8(5Ur*P!;#g9yua6VFcgJ04
     P211FjA ^C2020 06 20.30385917 11 07.005+00 47 13.71   ~6K7q 21.77GVNEOCP568
     P211FjA ^C2020 06 20.30503617 11 06.918+00 47 13.76   ~6K7q 21.82GVNEOCP568
     P211FjA ^C2020 06 20.30621617 11 06.834+00 47 13.85   ~6K7q 21.75GVNEOCP568
     P211FjA |C2020 06 22$SV,W;32oKJw:%oD/J`fkS?goUw;r9]wG9]$UJjJO:!isJ4(tNH?H06
     P211FjA |C2020 06 22'g,Pv)Fow)AstrometryFDB]Q.lU7`0'3Zoo.C=N$^ZUZ!);*)9gH06
     P211FjA KC2020 06 24o2O;Af!RG42]A_Id^)srGN2+UlLJ$!?B@,i.r,kmEEc)F6VGdXdvH21
     P211FjA KC2020 06 24=sijxGk=Gg8SWFL=l?7\u\Qredacted;)[cGWAFp?H\o)t#:u)WgH21
     P211FjA KC2020 06 24HNX^.-tJ8X_U%=\F=,eeH5,P8FKAXlC`%\n2Vrclick%4XZnu:l#H21
     P211FjA KC2020 06 25ZXK6m1f_28ZD*#*/9xvpp!^N[R#RGpU'(Z=Ol)4XunK`ie^e5.@sH21
     P211FjA KC2020 06 257:.'d=.lw%ACb/!8#WO=a:U')dGV!#\o1cZNK*#G1Y_i6Wr.fcEoH21
     P211FjA !C2020 06 26'mK(JbR\%fdQlD5HH\4'A#qxu%qaC0Jc[-4w_J#K4Tq3C@[.!13`673
     P211FjA !C2020 06 269K!6g1`+FG?D,iG1WU]jxW%XeAZPU46H_7^x1HFPF,smr+/OUfU3673
     P211FjA KC2020 06 27+PG[+[q-tbEUxf@xqg^j4Vuk?%F+Z360[KppvWE^#V!fwS77\,n1H21
     P211FjA KC2020 06 27Q36wspec[F5Qp1.;Je;@\WssO1U6YAgFW??N*]/*r:]p-heh.Gy(H21
     P211FjA KC2020 06 27u)m*sLK`L)Yl1=)tG!48jrFX]hA_A#4JprCvD^H'=nl5wf\RT8kDH21
     P211FjA !C2020 06 27dk#H3xaT!u%qGGk`oLXdm;^)n8B9],*:.=8IhereKmxPF-ekmZ%x673
     P211FjA !C2020 06 276L:uVbgR!J8_!V0J'#I2Ao?`:fuXlsIgxN)eZ^jsC.tSsx5vG!rp673
     P211FjA KC2020 06 27@21`-C,[lKHjS,04jahb[A[Y02[1^++pl$:x_`#a+Wm;E^o,LWAG104
     P211FjA KC2020 06 27mTX%ii=uu3kAk+?PFClQT_FSw;_#rKe4]D$ayUODv@PpKv9='GVM104
     P211FjA KC2020 06 27.h9for1:s6Z-s$1@d/o/,i9:5o1ppBCJPeca%\x_iKU%^?5-NuPg104
     P211FjA KC2020 06 29wEVFVLpRI@(h)jneB-.mKcMc)bJ1]!S4/406*c9Jk(S5PrW]%/DRH21
     P211FjA KC2020 06 29LMnw8QRkeRUSk]%^-qexplanationf:,2lwc6O5=CfVNr!m$VFA!H21
     P211FjA  C2020 07 10)F`jqL*XCpvCbM`yOpyL'h(tm^@h`#4Fm`Lwom:l/AR.C(Yvx+#fF51
     P211FjA  C2020 07 10gQYLKGfN6fuvlr:b?..(OakLCJA/Yaw0u#[vic2/^b!0Vc)r1G3MF51
     P211FjA  C2020 07 10VLOQ6.83r36-0%pv4T9ioSG4%Y5l5c8SR!EeM3U[w4QM`fk$6x$#F51
     P211FjA  C2020 07 10_9INKj;XvpX;Ckp$B*0o`J6R(LP.P.GCWvF]@;;q1s2T]3:Awd(GF51
     P211FjA ^C2020 07 11.35999416 47 38.628+00 43 01.15   ~7B97 21.97GVNEOCP568
     P211FjA ^C2020 07 11.36158416 47 38.525+00 43 01.03   ~7B97 21.95GVNEOCP568
     P211FjA ^C2020 07 11.36310916 47 38.432+00 43 00.96   ~7B97 22.02GVNEOCP568

Station data:
(104) San Marcello Pistoiese  (N44.063037 E10.804200)  Italy. 0.40-m f/5
   reflector.
(568) Mauna Kea  (N19.826116 W155.472200)  US/Hawaii.
(673) Table Mountain Observatory, Wrightwood  (N34.381488 W117.682170)
   US/California.  Observer W. M. Owen Jr. 0.61-m f/16 reflector + CCD.
(F51) Pan-STARRS 1, Haleakala  (N20.707235 W156.255910)  US/Hawaii.
   Observers N. Primak, A. Schultz, S. Watters, J. Thiel, T. Goggia. Measurer
   PS1 Science Consortium. 1.8-m Ritchey-Chrétien + CCD.
(F52) Pan-STARRS 2, Haleakala  (N20.707384 W156.255910)  US/Hawaii. 1.8-m
   Ritchey-Chrétien + CCD.
(H06) RAS Observatory, Mayhill  (N32.903325 W105.528700)  US/New
   Mexico.  Observers E. Guido, G. Sostero, V. Gonano, L. Donato.
(H21) Astronomical Research Observatory, Westfield  (N39.483057 W87.968270)
   US/Illinois. 0.76-m f/3.0 astrograph + CCD.
(J04) ESA Optical Ground Station, Tenerife  (N28.300924 W16.511830)  Canary
   Islands (Spain).  Observer D. Abreu. Measurers M. Micheli, D. Koschny, E.
   Schwab, M. Busch, A. Knöfel. 1.0-m f/4.4 reflector + CCD.

Orbital elements:  P211FjA
   Perihelion 2020 Nov 25.204236 +/- 1.5 TT =  4:54:06 (JD 2459178.704236)
Epoch 2020 Jul 11.0 TT = JDT 2459041.5   Sa: 0.2812   Ur: 0.8488
M 359.99565344 +/- 0.008            (J2000 ecliptic)          AutoNEOCP
n   0.00003167 +/- 4e-5             Peri.  104.75734 +/- 0.13
a 989.199744 +/- 841                Node   348.62131 +/- 0.010
e   0.9939865 +/- 0.00506           Incl.  160.12702 +/- 0.0014
P  31111                   H 14.1   G  0.15   U  5.9  
q 5.94851790 +/- 0.00371    Q 1972.45097 +/- 479
From 42 observations 2020 June 13-July 11; mean residual 0".36
Residuals in arcseconds: 
200613 F52  .00   .20+    200620 568  .11-  .19-    200627 673  .18-  .04+    
200613 F52  .31+  .29-    200620 568  .11-  .15-    200627 673  .13+  .04+    
200613 F52  .13+  .16-    200622 H06  1.6-  .60-    200627 104  .25-  .74-    
200613 F52  .14-  .44+    200622 H06  1.6-  .32-    200627 104  .49+  .16-    
200613 F52  .42+  .06+    200624 H21  .05-  .08+    200627 104  .40-  .77-    
200617 F52  .06-  .08-    200624 H21  .08+  .07+    200629 H21  .24+  .27-    
200617 F52  .15-  .13-    200624 H21  .24-  .01-    200629 H21  .14-  .06+    
200617 F52  .04-  .12-    200625 H21  .13+  .16+    200710 F51  .05+  .08+    
200618 H21  .48+  .32+    200625 H21  .04+  .04+    200710 F51  .13-  .06+    
200618 H21  .49+  .28-    200626 673  .06-  .13-    200710 F51  .01-  .08+    
200618 H21  .02+  .15+    200626 673  .24+  .45+    200710 F51  .01-  .21-    
200618 J04  .33-  .57-    200627 H21  .03-  .29-    200711 568  .03-  .04-    
200618 J04  .21+  .63+    200627 H21  .04+  .46-    200711 568  .10-  .07-    
200620 568  .06-  .20-    200627 H21  .12+  .39-    200711 568  .08-  .05-    

Ephemerides (geocentric):
Date (UTC) HH   RA              Dec         delta   r     elong  mag " sig PA
---- -- -- --  -------------   -----------  ------ ------ -----  --- ---- ---
2020 07 11 09  16 47 37.731   +00 43 00.86  5.2556 6.0257 135.8 22.1 .156 177
2020 07 11 10  16 47 35.176   +00 42 58.40  5.2560 6.0256 135.7 22.1 .158 177
2020 07 11 11  16 47 32.623   +00 42 55.93  5.2564 6.0256 135.7 22.1 .159 177
2020 07 11 12  16 47 30.070   +00 42 53.45  5.2568 6.0256 135.6 22.1 .160 177
2020 07 11 13  16 47 27.519   +00 42 50.97  5.2572 6.0255 135.6 22.1 .161 177
2020 07 11 14  16 47 24.969   +00 42 48.48  5.2576 6.0255 135.5 22.1 .162 176
2020 07 11 15  16 47 22.420   +00 42 45.99  5.2580 6.0254 135.5 22.1 .163 176
2020 07 11 16  16 47 19.872   +00 42 43.48  5.2584 6.0254 135.5 22.1 .165 176
2020 07 11 17  16 47 17.326   +00 42 40.97  5.2588 6.0253 135.4 22.1 .166 176
2020 07 11 18  16 47 14.780   +00 42 38.46  5.2592 6.0253 135.4 22.1 .167 176
2020 07 11 19  16 47 12.236   +00 42 35.93  5.2597 6.0252 135.3 22.1 .168 176
2020 07 11 20  16 47 09.693   +00 42 33.40  5.2601 6.0252 135.3 22.1 .169 176
2020 07 11 21  16 47 07.151   +00 42 30.86  5.2605 6.0251 135.3 22.1 .171 176
2020 07 11 22  16 47 04.610   +00 42 28.31  5.2609 6.0251 135.2 22.1 .172 175
2020 07 11 23  16 47 02.070   +00 42 25.76  5.2613 6.0250 135.2 22.1 .173 175
2020 07 12 00  16 46 59.532   +00 42 23.20  5.2617 6.0250 135.1 22.1 .174 175
2020 07 12 01  16 46 56.994   +00 42 20.63  5.2621 6.0250 135.1 22.1 .176 175
2020 07 12 02  16 46 54.458   +00 42 18.06  5.2625 6.0249 135.0 22.1 .177 175
2020 07 12 03  16 46 51.923   +00 42 15.48  5.2630 6.0249 135.0 22.1 .178 175
2020 07 12 04  16 46 49.389   +00 42 12.89  5.2634 6.0248 135.0 22.1 .179 175
2020 07 12 05  16 46 46.856   +00 42 10.29  5.2638 6.0248 134.9 22.1 .181 175
2020 07 12 06  16 46 44.325   +00 42 07.69  5.2642 6.0247 134.9 22.1 .182 175
2020 07 12 07  16 46 41.794   +00 42 05.08  5.2646 6.0247 134.8 22.1 .183 174
2020 07 12 08  16 46 39.265   +00 42 02.46  5.2650 6.0246 134.8 22.1 .184 174
2020 07 12 09  16 46 36.737   +00 41 59.84  5.2654 6.0246 134.8 22.1 .186 174
2020 07 12 10  16 46 34.210   +00 41 57.21  5.2659 6.0245 134.7 22.1 .187 174
2020 07 12 11  16 46 31.685   +00 41 54.57  5.2663 6.0245 134.7 22.1 .188 174
2020 07 12 12  16 46 29.160   +00 41 51.92  5.2667 6.0244 134.6 22.1 .189 174
2020 07 12 13  16 46 26.637   +00 41 49.27  5.2671 6.0244 134.6 22.1 .191 174
2020 07 12 14  16 46 24.114   +00 41 46.61  5.2675 6.0243 134.5 22.1 .192 174
2020 07 12 15  16 46 21.593   +00 41 43.95  5.2680 6.0243 134.5 22.1 .193 174
2020 07 12 16  16 46 19.074   +00 41 41.27  5.2684 6.0243 134.5 22.1 .195 174
2020 07 12 17  16 46 16.555   +00 41 38.59  5.2688 6.0242 134.4 22.1 .196 173
2020 07 12 18  16 46 14.037   +00 41 35.90  5.2692 6.0242 134.4 22.1 .197 173
2020 07 12 19  16 46 11.521   +00 41 33.21  5.2696 6.0241 134.3 22.1 .199 173
2020 07 12 20  16 46 09.006   +00 41 30.51  5.2701 6.0241 134.3 22.1 .200 173
2020 07 12 21  16 46 06.492   +00 41 27.80  5.2705 6.0240 134.3 22.1 .201 173
2020 07 12 22  16 46 03.979   +00 41 25.08  5.2709 6.0240 134.2 22.1 .202 173
2020 07 12 23  16 46 01.468   +00 41 22.36  5.2713 6.0239 134.2 22.1 .204 173
2020 07 13 00  16 45 58.957   +00 41 19.63  5.2718 6.0239 134.1 22.1 .205 173
2020 07 13 01  16 45 56.448   +00 41 16.89  5.2722 6.0238 134.1 22.1 .206 173
2020 07 13 02  16 45 53.940   +00 41 14.15  5.2726 6.0238 134.0 22.1 .208 173
2020 07 13 03  16 45 51.433   +00 41 11.40  5.2730 6.0238 134.0 22.1 .209 172
2020 07 13 04  16 45 48.928   +00 41 08.64  5.2735 6.0237 134.0 22.1 .210 172
2020 07 13 05  16 45 46.423   +00 41 05.88  5.2739 6.0237 133.9 22.1 .212 172
2020 07 13 06  16 45 43.920   +00 41 03.11  5.2743 6.0236 133.9 22.1 .213 172
2020 07 13 07  16 45 41.418   +00 41 00.33  5.2748 6.0236 133.8 22.1 .215 172
2020 07 13 08  16 45 38.917   +00 40 57.54  5.2752 6.0235 133.8 22.1 .216 172